"TOA5","AWS1","CR1000","7964","CR1000.Std.14","CPU:AWS1_114.CR1","64363","TBL110"
"TIMESTAMP","RECORD","Wind_spd_WVc(1)","Wind_spd_WVc(2)","Air_Temp_Avg","Humidity_Avg","SW_upper_Wm2_Avg","Rain_Tot","Press_Avg","Issui_Tot","Depth_cm","SR50A_Raw","Quality","Ground_Temp_Avg(1)","Ground_Temp_Avg(2)","SW_lower_Wm2_Avg","Albedo_Avg","SWC_per(1)","SWC_per(2)","Period(1)","Period(2)"
"TS","RN","","","","","","","","","","","","","","","","","","",""
"","","WVc","WVc","Avg","Avg","Avg","Tot","Avg","Tot","Smp","Smp","Smp","Avg","Avg","Avg","Avg","Smp","Smp","Smp","Smp"
"2017-12-06 00:00:00",317581,0,0,-4.677,96.2,0,0,857.9793,0.5,21.07,2.995,201,3.072,3.966,0.007586025,0,51.6,59.08,33.69,35.47
"2017-12-06 00:10:00",317582,0,0,-4.684,96.1,0,0.5,857.9793,0,21.37,2.992,186,3.055,3.948,0,0,51.66,59.08,33.7,35.47
"2017-12-06 00:20:00",317583,0,0,-4.71,96.3,0,0,857.9793,0.5,21.37,2.992,200,3.069,3.947,0,0,51.6,59.08,33.69,35.47
"2017-12-06 00:30:00",317584,0,0,-4.677,96.6,0,0,857.9793,0,20.68,2.999,215,3.069,3.949,0,0,51.6,59.08,33.69,35.47
"2017-12-06 00:40:00",317585,0,0,-4.68,96.6,0,0.5,857.9793,0,21.17,2.994,197,3.067,3.952,0,0,51.66,59.08,33.7,35.47
"2017-12-06 00:50:00",317586,0,0,-4.725,96.7,0,0,858.0404,0,21.37,2.993,184,3.066,3.957,0,0,51.66,59.03,33.7,35.45
"2017-12-06 01:00:00",317587,0,0,-4.833,97.4,0,0,857.9835,0.5,21.84,2.988,203,3.069,3.953,0,0,51.66,59.08,33.7,35.47
"2017-12-06 01:10:00",317588,0,0,-4.752,97,0,0,857.9793,0,21.77,2.988,193,3.072,3.963,0,0,51.6,59.08,33.69,35.47
"2017-12-06 01:20:00",317589,0,0,-4.713,96.4,0,0,857.9793,0.5,20.25,3.004,200,3.068,3.952,0,0,51.6,59.08,33.69,35.47
"2017-12-06 01:30:00",317590,0,0,-4.837,96.3,0,0,858.2217,0,20.78,2.999,205,3.064,3.939,0,0,51.6,59.08,33.69,35.47
"2017-12-06 01:40:00",317591,0,0,-4.945,96.5,0,0,858.2701,0,18.9,3.018,236,3.057,3.934,0,0,51.66,59.08,33.7,35.47
"2017-12-06 01:50:00",317592,0,0,-4.947,96.2,0,0,858.3994,0,21.72,2.99,244,3.058,3.941,0,0,51.66,59.08,33.7,35.47
"2017-12-06 02:00:00",317593,0,0,-5.006,95,0.1612829,0,858.4979,0,21.96,2.988,221,3.062,3.964,0,0,51.6,59.08,33.69,35.47
"2017-12-06 02:10:00",317594,0,0,-5.021,95.1,0.003933832,0.5,858.5075,0,21.86,2.989,218,3.066,3.976,0,0,51.6,59.08,33.69,35.47
"2017-12-06 02:20:00",317595,0,0,-5.094,95.6,0.003933976,0,858.5277,0,22.24,2.986,221,3.077,3.985,0,0,51.66,59.08,33.7,35.47
"2017-12-06 02:30:00",317596,0,0,-5.218,96.3,0.05901156,0,858.4948,0,22.24,2.987,213,3.087,3.992,0,0,51.6,59.08,33.69,35.47
"2017-12-06 02:40:00",317597,0,0,-5.347,97.3,0.2360453,0.5,858.4916,0,22.24,2.987,222,3.086,3.994,0,0,51.66,59.08,33.7,35.47
"2017-12-06 02:50:00",317598,0,0,-5.345,96.9,0.2006401,0,858.3266,0,22.83,2.981,289,3.083,3.997,0,0,51.6,59.03,33.69,35.45
"2017-12-06 03:00:00",317599,0,0,-5.341,95.8,0,0,858.1804,0,22.03,2.989,220,3.09,4.006,0,0,51.6,59.03,33.69,35.45
"2017-12-06 03:10:00",317600,0,0,-5.284,95,0,0,858.1498,0,21.29,2.996,204,3.092,4.01,0,0,51.66,59.03,33.7,35.45
"2017-12-06 03:20:00",317601,0,0,-5.248,94.1,0,0,858.0983,0,21.19,2.997,203,3.098,4.013,0.003793415,0,51.66,59.03,33.7,35.45
"2017-12-06 03:30:00",317602,0,0,-5.311,93.4,0,0,858.0635,0,21.16,2.998,200,3.091,4.011,0,0,51.6,59.03,33.69,35.45
"2017-12-06 03:40:00",317603,0,0,-5.335,93.4,0,0,858.1491,0.5,21.44,2.995,200,3.077,4.017,0,0,51.6,59.03,33.69,35.45
"2017-12-06 03:50:00",317604,0,0,-5.33,93.3,0,0,858.2058,0,21.34,2.996,195,3.081,4.01,0,0,51.6,59.03,33.69,35.45
"2017-12-06 04:00:00",317605,0,0,-5.336,93.6,0,0.5,858.3768,0,22.13,2.988,205,3.093,4.005,0,0,51.66,59.03,33.7,35.45
"2017-12-06 04:10:00",317606,0,0,-5.333,94.3,0,0,858.5632,0,22.23,2.987,199,3.094,4.002,0,0,51.66,59.03,33.7,35.45
"2017-12-06 04:20:00",317607,0,0,-5.34,94.9,0,0,858.5132,0,23,2.979,197,3.097,3.993,0.007586854,0,51.6,59.03,33.69,35.45
"2017-12-06 04:30:00",317608,0,0,-5.405,95.4,0,0,858.4993,0.5,23.07,2.979,199,3.098,3.997,0,0,51.66,59.03,33.7,35.45
"2017-12-06 04:40:00",317609,0,0,-5.456,95.1,0,0,858.7678,0,21.68,2.993,238,3.086,4.009,0,0,51.66,59.03,33.7,35.45
"2017-12-06 04:50:00",317610,0,0,-5.421,95,0,0.5,858.8896,0,23.96,2.97,225,3.098,3.99,0,0,51.66,59.03,33.7,35.45
"2017-12-06 05:00:00",317611,0,0,-5.464,94.5,0.03540882,0,859.0793,0,24.21,2.968,189,3.098,3.984,0,0,51.6,59.03,33.69,35.45
"2017-12-06 05:10:00",317612,0,0,-5.511,94.4,0.03934313,0,859.1052,0.5,24.43,2.966,192,3.1,3.961,0,0,51.6,59.03,33.69,35.45
"2017-12-06 05:20:00",317613,0,0,-5.56,95.3,0.08262058,0,859.1074,0,24.5,2.965,192,3.103,3.947,0.003793427,0,51.66,59.03,33.7,35.45
"2017-12-06 05:30:00",317614,0,0,-5.506,95.5,0,0.5,859.3857,0,24.5,2.965,172,3.103,3.943,0.003793427,0,51.6,59.03,33.69,35.45
"2017-12-06 05:40:00",317615,0,0,-5.506,95.6,0,0,859.586,0,24.5,2.965,170,3.096,3.976,0.007586854,0,51.6,59.03,33.69,35.45
"2017-12-06 05:50:00",317616,0,0,-5.486,95.7,0,0,859.702,0,24.85,2.961,170,3.093,3.994,0.05310798,0,51.6,59.03,33.69,35.45
"2017-12-06 06:00:00",317617,0,0,-5.362,95.6,0,0,860.0499,0,24.71,2.962,192,3.103,3.952,0.2124319,0,51.6,59.03,33.69,35.45
"2017-12-06 06:10:00",317618,0,0,-5.264,95.1,0,0,860.2755,0.5,24.46,2.964,200,3.103,3.967,0.2276056,0,51.66,59.03,33.7,35.45
"2017-12-06 06:20:00",317619,0,0,-5.308,95.3,0,0,860.48,0.5,24.11,2.968,237,3.101,3.962,0.1175962,0,51.6,59.03,33.69,35.45
"2017-12-06 06:30:00",317620,0,0,-5.371,95.3,0.01573725,0,860.598,0,26.44,2.945,234,3.103,3.962,0.01517371,0.048,51.6,59.03,33.69,35.45
"2017-12-06 06:40:00",317621,0,0,-5.445,95.1,0.2360588,0.5,860.8088,0.5,24.97,2.961,197,3.103,3.964,0.2427793,1.028,51.6,59.03,33.69,35.45
"2017-12-06 06:50:00",317622,0,0,-5.567,95.1,0.3973657,0,860.9649,0,25.94,2.951,195,3.103,3.973,0.728338,1.888,51.66,59.03,33.7,35.45
"2017-12-06 07:00:00",317623,0,0,-5.67,95.6,0.6570303,0,861.1736,0,26.38,2.947,214,3.101,3.953,1.540131,2.349,51.6,59.03,33.69,35.45
"2017-12-06 07:10:00",317624,0,0,-5.628,96.2,1.23144,0,861.3402,0,25.34,2.957,208,3.103,3.983,4.343474,3.515,51.6,59.03,33.69,35.45
"2017-12-06 07:20:00",317625,0,0,-5.612,96.2,1.609134,0.5,861.5131,0.5,26.55,2.945,212,3.101,3.992,5.735662,3.577,51.66,59.03,33.7,35.45
"2017-12-06 07:30:00",317626,0,0,-5.595,96.5,2.297639,0,861.6755,0,27.05,2.94,196,3.103,3.978,8.227943,3.57,51.6,59.03,33.69,35.45
"2017-12-06 07:40:00",317627,0,0,-5.558,96.8,4.681833,0.5,861.8632,0,26.68,2.943,229,3.102,3.999,17.92015,3.782,51.6,59.03,33.69,35.45
"2017-12-06 07:50:00",317628,0,0,-5.483,97.2,7.329626,0,861.9474,0,26.44,2.945,218,3.091,4.006,29.27008,3.992,51.6,59.03,33.69,35.45
"2017-12-06 08:00:00",317629,0,0,-5.342,97,8.718439,0,862.1161,0,26.69,2.942,187,3.07,4.01,34.83883,3.996,51.6,59.03,33.69,35.45
"2017-12-06 08:10:00",317630,0,0,-5.482,96.9,13.98648,0,862.1161,0,26.73,2.942,197,3.059,4.009,53.13832,3.808,51.6,59.03,33.69,35.45
"2017-12-06 08:20:00",317631,0,0,-5.372,96.5,16.59887,0.5,862.1498,0,26.46,2.944,198,3.031,3.974,63.35023,3.817,51.6,59.03,33.69,35.45
"2017-12-06 08:30:00",317632,0,0,-5.058,95.2,15.94184,0,862.3622,0.5,26.64,2.941,189,3.044,3.969,62.26531,3.905,51.6,59.03,33.69,35.45
"2017-12-06 08:40:00",317633,0,0,-4.945,94.9,19.17978,0,862.3634,0,26.48,2.941,206,3.091,3.971,74.35497,3.876,51.6,59.03,33.69,35.45
"2017-12-06 08:50:00",317634,0,0,-4.8,93.5,20.43482,0,862.3796,0,27.15,2.934,195,3.103,3.974,78.56946,3.842,51.6,59.03,33.69,35.45
"2017-12-06 09:00:00",317635,0,0,-4.59,94.1,28.2405,0.5,862.486,0,26.36,2.941,197,3.082,3.998,109.1824,3.868,51.6,58.97,33.69,35.44
"2017-12-06 09:10:00",317636,0,0,-4.585,93.9,30.5689,0,862.5303,0,26.67,2.938,200,3.029,4.003,116.0344,3.797,51.6,58.97,33.69,35.44
"2017-12-06 09:20:00",317637,0,0,-4.453,92.9,26.3457,0,862.5342,0,26.54,2.938,198,3.001,3.949,99.97806,3.792,51.6,59.03,33.69,35.45
"2017-12-06 09:30:00",317638,0,0,-4.434,92.3,28.40016,0,862.5578,0,26.58,2.938,194,2.969,3.944,107.9586,3.797,51.6,59.03,33.69,35.45
"2017-12-06 09:40:00",317639,0,0,-4.285,91.2,32.01228,0,862.7218,0,26.28,2.939,198,2.96,3.976,108.924,3.438,51.6,59.03,33.69,35.45
"2017-12-06 09:50:00",317640,0,0,-4.041,88.4,35.78677,0,862.785,0,26.63,2.935,198,3.019,3.971,120.1711,3.325,51.6,59.03,33.69,35.45
"2017-12-06 10:00:00",317641,0,0,-3.725,85.7,39.4912,0,862.9936,0,26.4,2.934,196,3.1,3.968,143.7568,3.641,51.6,58.97,33.69,35.44
"2017-12-06 10:10:00",317642,0,0,-3.489,82.9,42.42504,0,863.0379,0,26.35,2.935,198,3.101,3.938,140.8514,3.327,51.6,59.03,33.69,35.45
"2017-12-06 10:20:00",317643,0,0,-3.382,84.9,43.93131,0,863.0842,0,26.56,2.932,196,3.08,3.89,157.4039,3.591,51.6,59.03,33.69,35.45
"2017-12-06 10:30:00",317644,0.007,264.7,-3.223,84.2,42.23619,0,863.2781,0,26.16,2.936,196,3.016,3.913,154.6205,3.636,51.6,59.03,33.69,35.45
"2017-12-06 10:40:00",317645,0.002,302.7,-3.355,83.3,34.15,0,863.2508,0,26.35,2.935,197,3.016,3.941,107.3629,3.259,51.6,58.97,33.69,35.44
"2017-12-06 10:50:00",317646,0.425,309.3,-3.45,82,32.56501,0,863.2283,0,26.35,2.935,195,3.023,3.953,113.1687,3.404,51.6,58.97,33.69,35.44
"2017-12-06 11:00:00",317647,0.366,76.47,-3.296,82.5,33.2295,0,863.23,0,26.33,2.932,196,3.018,3.959,131.0781,3.847,51.6,58.97,33.69,35.44
"2017-12-06 11:10:00",317648,0.245,212.1,-3.031,81.4,26.57074,0,863.0671,0,26.16,2.936,181,3.032,4.004,100.0766,3.756,51.6,58.97,33.69,35.44
"2017-12-06 11:20:00",317649,0.238,287.4,-3.105,79.82,58.5613,0,862.9537,0,26.15,2.933,190,3.05,4.024,194.1274,3.382,51.66,58.97,33.7,35.44
"2017-12-06 11:30:00",317650,0.024,47.19,-2.721,74.46,60.28469,0,862.949,0,26.26,2.933,190,3.042,3.97,207.2154,3.456,51.6,58.97,33.69,35.44
"2017-12-06 11:40:00",317651,0,0,-2.777,79.62,45.57093,0,862.9435,0,26.42,2.931,193,3.073,3.941,167.7342,3.683,51.6,58.97,33.69,35.44
"2017-12-06 11:50:00",317652,0,0,-2.832,77.56,49.37083,0,862.8085,0,26.25,2.932,193,3.071,3.926,160.5806,3.29,51.6,58.97,33.69,35.44
"2017-12-06 12:00:00",317653,0.138,27.27,-2.629,76.45,55.73136,0,862.6925,0,26.34,2.93,193,3.058,3.897,176.7077,3.245,51.6,58.97,33.69,35.44
"2017-12-06 12:10:00",317654,0.267,1.73,-2.535,75.63,62.59169,0,862.6946,0,26.21,2.931,194,3.023,3.879,176.5398,2.912,51.6,58.97,33.69,35.44
"2017-12-06 12:20:00",317655,0.275,1.511,-2.093,77.64,118.7156,0,862.6841,0,25.69,2.933,190,3.015,3.88,273.9034,2.469,51.6,58.97,33.69,35.44
"2017-12-06 12:30:00",317656,0.413,29.37,-1.666,73.68,126.4451,0,862.456,0,26.01,2.927,181,3.003,3.934,279.7146,2.286,51.6,58.97,33.69,35.44
"2017-12-06 12:40:00",317657,0.42,70.56,-1.085,78.68,202.0098,0,862.4409,0,25.84,2.928,192,2.969,3.918,249.1287,1.427,51.6,58.97,33.69,35.44
"2017-12-06 12:50:00",317658,0.588,44.73,-1.55,76.06,185.7464,0,862.413,0.5,25.96,2.931,187,2.991,3.906,200.5368,1.156,51.6,58.97,33.69,35.44
"2017-12-06 13:00:00",317659,0.497,268,-1.966,75.31,129.1435,0,862.4039,0,25.42,2.937,193,2.988,3.893,153.1552,1.27,51.6,58.97,33.69,35.44
"2017-12-06 13:10:00",317660,0.236,24.71,-2.135,76.79,78.39993,0,862.6048,0,25.41,2.937,197,2.909,3.875,103.5413,1.352,51.6,58.97,33.69,35.44
"2017-12-06 13:20:00",317661,0.491,15.48,-2.214,78.83,79.08994,0,862.6045,0,25.29,2.94,186,2.893,3.865,103.6868,1.329,51.6,58.97,33.69,35.44
"2017-12-06 13:30:00",317662,0.221,11.88,-2.325,77.25,108.94,0,862.6571,0,25.3,2.939,196,2.924,3.872,129.292,1.204,51.6,58.97,33.69,35.44
"2017-12-06 13:40:00",317663,0.313,350.4,-2.326,79.35,80.41371,0,862.7645,0,25.09,2.943,196,2.924,3.867,105.1258,1.34,51.6,58.97,33.69,35.44
"2017-12-06 13:50:00",317664,0.15,330.2,-2.536,81.8,87.04014,0,862.8551,0,25.07,2.943,197,2.924,3.814,93.95418,1.081,51.6,58.97,33.69,35.44
"2017-12-06 14:00:00",317665,0.199,45.78,-2.545,78.6,93.65874,0,862.8425,0,25.17,2.942,195,2.924,3.788,94.18155,1.012,51.6,58.97,33.69,35.44
"2017-12-06 14:10:00",317666,0.318,341.5,-2.559,80.7,52.75624,0,862.8509,0,24.89,2.945,196,2.93,3.788,69.18571,1.32,51.6,58.97,33.69,35.44
"2017-12-06 14:20:00",317667,0.157,314.2,-2.578,84.4,62.51908,0,862.8572,0,24.52,2.949,197,2.944,3.79,80.2095,1.286,51.6,58.97,33.69,35.44
"2017-12-06 14:30:00",317668,0.346,349.1,-2.507,85.1,59.20894,0,862.8572,0,24.42,2.95,198,2.981,3.823,73.37321,1.246,51.6,58.97,33.69,35.44
"2017-12-06 14:40:00",317669,0.235,350.7,-2.684,90.1,59.08701,0,863.0468,0,24.37,2.949,198,3.037,3.877,75.34236,1.292,51.6,58.97,33.69,35.44
"2017-12-06 14:50:00",317670,0.363,21.54,-2.339,90.1,90.1738,0,863.1109,0,24.69,2.945,223,3.062,3.895,123.4101,1.371,51.6,58.97,33.69,35.44
"2017-12-06 15:00:00",317671,0.355,11.6,-2.413,89.1,95.68956,0,863.1822,0,25.11,2.943,204,3.053,3.904,128.6958,1.342,51.6,58.97,33.69,35.44
"2017-12-06 15:10:00",317672,0.294,359.7,-2.769,88.1,35.32143,0,863.3492,0,25.98,2.935,202,3.082,3.914,46.53213,1.357,51.6,58.97,33.69,35.44
"2017-12-06 15:20:00",317673,0.497,337.1,-2.749,91.1,20.78647,0,863.447,0,23.26,2.964,201,3.083,3.925,26.24011,1.283,51.55,58.97,33.68,35.44
"2017-12-06 15:30:00",317674,0.396,323.2,-3.287,92.9,13.66633,0,863.7272,0,27.6,2.922,300,3.025,3.942,18.99587,1.384,51.6,58.97,33.69,35.44
"2017-12-06 15:40:00",317675,0.226,321.7,-3.386,94.7,17.54292,0,863.9388,0.5,25.83,2.94,199,3.008,3.962,25.20906,1.433,51.6,58.97,33.69,35.44
"2017-12-06 15:50:00",317676,0.253,359.4,-3.464,95.6,12.50257,0,864.0765,0,25.98,2.939,205,3.002,3.958,18.2453,1.461,51.6,58.97,33.69,35.44
"2017-12-06 16:00:00",317677,0.204,329.8,-3.564,94.9,14.55881,0,864.1835,0,25.95,2.939,210,3.032,3.941,21.16803,1.481,51.6,58.97,33.69,35.44
"2017-12-06 16:10:00",317678,0.149,358.1,-3.375,94.4,5.913167,0,864.3094,0,25.01,2.949,204,3.023,3.915,8.324677,1.404,51.55,58.97,33.68,35.44
"2017-12-06 16:20:00",317679,0.261,330.2,-3.526,95.8,3.935558,0,864.4493,0,25.5,2.944,198,3.015,3.87,5.132792,1.305,51.6,58.97,33.69,35.44
"2017-12-06 16:30:00",317680,0.186,274.4,-3.46,95.8,1.918634,0,864.4643,0.5,26.05,2.938,198,3.011,3.856,2.009143,0.967,51.6,58.97,33.69,35.44
"2017-12-06 16:40:00",317681,0.2,271.4,-3.463,91.9,0.3105985,0,864.4643,0,26.01,2.938,200,3.011,3.873,0.0416992,0.048,51.6,58.97,33.69,35.44
"2017-12-06 16:50:00",317682,0.093,183,-3.425,90.3,0,0.5,864.4664,0,26.18,2.937,195,3.011,3.876,0,0,51.55,59.03,33.68,35.45
"2017-12-06 17:00:00",317683,0.155,215.3,-3.477,90.5,0,0,864.496,0,26.3,2.936,198,3.014,3.879,0,0,51.6,58.97,33.69,35.44
"2017-12-06 17:10:00",317684,0.8,174.2,-3.654,91.7,0,0,864.4622,0,25.98,2.94,193,3.022,3.887,0,0,51.6,58.97,33.69,35.44
"2017-12-06 17:20:00",317685,0.784,183.8,-3.668,91.2,0,0,864.4662,0,26.16,2.938,197,3.05,3.915,0,0,51.6,58.97,33.69,35.44
"2017-12-06 17:30:00",317686,0.546,173.1,-3.711,92.3,0,0,864.4766,0,25.9,2.941,197,3.079,3.944,0,0,51.6,58.97,33.69,35.44
"2017-12-06 17:40:00",317687,0.495,177.7,-3.644,93.4,0,0.5,864.5134,0,25.9,2.941,197,3.087,3.958,0,0,51.6,58.97,33.69,35.44
"2017-12-06 17:50:00",317688,0.359,199.8,-3.629,92.7,0,0,864.6194,0,25.8,2.941,201,3.065,3.963,0,0,51.6,58.97,33.69,35.44
"2017-12-06 18:00:00",317689,0.173,177,-3.524,92.2,0,0,864.69,0,25.8,2.941,200,3.041,3.964,0,0,51.6,58.97,33.69,35.44
"2017-12-06 18:10:00",317690,0.107,348.7,-3.639,92.3,0,0,864.9673,0,26.02,2.94,199,3.003,3.963,0,0,51.6,58.91,33.69,35.43
"2017-12-06 18:20:00",317691,0.14,347.5,-3.638,94.9,0,0,865.2485,0,26.05,2.939,179,2.971,3.942,0.2123593,0,51.55,58.97,33.68,35.44
"2017-12-06 18:30:00",317692,0.08,95.3,-3.628,98.4,0,0,865.2402,0,26.34,2.937,195,2.955,3.962,0.2540727,0,51.6,58.97,33.69,35.44
"2017-12-06 18:40:00",317693,0.016,149,-3.717,97.5,0,0,865.3077,0,26.29,2.937,196,2.958,3.949,0,0,51.6,58.97,33.69,35.44
"2017-12-06 18:50:00",317694,0.004,270.1,-3.638,94.7,0,0,865.314,0,26.19,2.938,192,2.973,3.925,0,0,51.6,58.97,33.69,35.44
"2017-12-06 19:00:00",317695,0.124,150,-3.76,92.7,0,0,865.314,0,26.09,2.94,193,2.97,3.929,0,0,51.6,58.97,33.69,35.44
"2017-12-06 19:10:00",317696,0.126,284.9,-3.944,94.3,0,0,865.3541,0,26.13,2.94,193,2.971,3.924,0,0,51.6,58.97,33.69,35.44
"2017-12-06 19:20:00",317697,0.077,282.7,-3.987,95.1,0,0,865.4172,0,26.18,2.94,196,2.977,3.939,0,0,51.55,58.97,33.68,35.44
"2017-12-06 19:30:00",317698,0.21,319.3,-3.925,93.5,0,0,865.4046,0,26.04,2.94,197,2.978,3.954,0.09101113,0,51.55,58.97,33.68,35.44
"2017-12-06 19:40:00",317699,0.32,54.33,-3.742,87.6,0,0,865.5416,0,26,2.94,197,2.976,3.95,0.3374996,0,51.6,58.97,33.69,35.44
"2017-12-06 19:50:00",317700,0.277,35.94,-3.69,85.8,0,0,865.567,0,25.75,2.942,197,2.977,3.958,0.3261232,0,51.6,58.97,33.69,35.44
"2017-12-06 20:00:00",317701,0.062,315.2,-3.726,86.4,0,0,865.567,0,25.64,2.945,193,2.977,3.958,0.1896065,0,51.6,58.97,33.69,35.44
"2017-12-06 20:10:00",317702,0.489,23.59,-3.783,84.5,0,0,865.567,0,25.29,2.948,195,2.98,3.961,0.09859539,0,51.6,58.97,33.69,35.44
"2017-12-06 20:20:00",317703,0.788,36.1,-3.965,87.4,0,0,865.6301,0,25.2,2.949,197,2.996,3.96,0,0,51.6,58.97,33.69,35.44
"2017-12-06 20:30:00",317704,0.325,84.5,-4.045,88.9,0,0,865.567,0,25.63,2.947,200,3.004,3.961,0,0,51.6,58.97,33.69,35.44
"2017-12-06 20:40:00",317705,0.422,21.59,-4.052,85.2,0,0,865.5985,0,24.97,2.951,199,3.012,3.931,0.1630616,0,51.6,58.97,33.69,35.44
"2017-12-06 20:50:00",317706,0.462,321.1,-3.995,86.8,0,0,865.7966,0,25.28,2.95,206,3.013,3.938,0.1137639,0,51.6,58.91,33.69,35.43
"2017-12-06 21:00:00",317707,0.024,3.299,-4.503,91,0,0,865.6913,0,25.07,2.954,197,3.014,3.939,0,0,51.6,58.97,33.69,35.44
"2017-12-06 21:10:00",317708,0.036,3.323,-4.611,91.7,0,0,865.7018,0,25.24,2.953,198,3.014,3.934,0,0,51.6,58.97,33.69,35.44
"2017-12-06 21:20:00",317709,0,0,-4.718,91.9,0,0,865.8198,0,25.22,2.953,204,3.014,3.911,0.03412917,0,51.6,58.91,33.69,35.43
"2017-12-06 21:30:00",317710,0.045,3.353,-4.807,91.6,0,0,865.9189,0,24.97,2.957,203,3.014,3.892,0.07963474,0,51.6,58.97,33.69,35.44
"2017-12-06 21:40:00",317711,0.056,101.8,-4.932,91.7,0,0,865.921,0,24.76,2.96,200,3.015,3.887,0.1782305,0,51.6,58.97,33.69,35.44
"2017-12-06 21:50:00",317712,0.159,201.2,-4.927,92.5,0,0,865.8198,0,24.77,2.958,200,3.018,3.89,0.1441028,0,51.6,58.97,33.69,35.44
"2017-12-06 22:00:00",317713,0,0,-4.68,93.8,0,0,865.8851,0,24.87,2.957,209,3.02,3.892,0.3033756,0,51.6,58.97,33.69,35.44
"2017-12-06 22:10:00",317714,0.021,212.1,-4.779,93.6,0,0,865.824,0,24.91,2.957,206,3.027,3.9,0,0,51.6,58.91,33.69,35.43
"2017-12-06 22:20:00",317715,0.047,183.2,-4.879,94.8,0,0,865.8198,0,24.8,2.959,205,3.032,3.9,0,0,51.6,58.91,33.69,35.43
"2017-12-06 22:30:00",317716,0.313,44.07,-4.663,95.5,0,0,865.9083,0,24.61,2.959,210,3.042,3.909,0.4475222,0,51.55,58.91,33.68,35.43
"2017-12-06 22:40:00",317717,0.429,52.51,-4.528,96.8,0,0,866.0201,0,24.36,2.961,204,3.052,3.918,0.557523,0,51.6,58.91,33.69,35.43
"2017-12-06 22:50:00",317718,0.325,358.9,-4.506,96.9,0,0,865.8261,0,23.88,2.966,211,3.057,3.923,0.3337613,0,51.6,58.91,33.69,35.43
"2017-12-06 23:00:00",317719,0.445,354.8,-4.516,98.5,0,0,865.8198,0,23.56,2.969,246,3.063,3.937,0.2275702,0,51.6,58.97,33.69,35.44
"2017-12-06 23:10:00",317720,0.296,238.6,-4.526,99.9,0,0,865.7946,0,22.47,2.98,242,3.064,3.936,0.2010216,0,51.6,58.91,33.69,35.43
"2017-12-06 23:20:00",317721,0.298,28.97,-4.345,96.3,0,0,865.7313,0,22.97,2.973,253,3.063,3.936,0,0,51.6,58.91,33.69,35.43
"2017-12-06 23:30:00",317722,0.124,288.4,-4.235,89.1,0,0,865.7946,0,21.93,2.985,240,3.068,3.942,0,0,51.6,58.97,33.69,35.44
"2017-12-06 23:40:00",317723,0.251,166.5,-4.335,88,0,0,865.5712,0,25.06,2.952,390,3.063,3.931,0,0,51.6,58.91,33.69,35.43
"2017-12-06 23:50:00",317724,1.081,216.7,-4.342,87.8,0,0,865.4364,0,26.24,2.941,362,3.071,3.943,0,0,51.6,58.91,33.69,35.43
